Location: Newark
(29.9790°N, 31.1340°E)
Time: 19:40:01
(UTC+00:00)

Tiros 1 - All Passes

Search period start: 25 January 2020 00:00
Search period end: 04 February 2020 00:00
Orbit: 630 x 664 km, 48.4° (Epoch: 25 January)

Date Brightness Start Highest point End Pass type
(mag) Time Alt. Az. Time Alt. Az. Time Alt. Az.
25 Jan - 09:17:50 10° SW 09:22:26 71° SE 09:27:07 10° NE daylight
25 Jan - 11:01:24 10° WNW 11:04:58 21° NNW 11:08:35 10° NNE daylight
25 Jan - 16:12:11 10° NNW 16:16:23 30° NNE 16:20:36 10° E visible
25 Jan - 17:54:07 10° WNW 17:58:41 44° SW 18:03:13 10° SSE visible
26 Jan - 08:02:55 10° S 08:06:34 23° SE 08:10:15 10° ENE daylight
26 Jan - 09:44:03 10° WSW 09:48:31 46° NW 09:53:03 10° NE daylight
26 Jan - 11:29:38 10° NW 11:31:39 12° NNW 11:33:40 10° N daylight
26 Jan - 14:56:53 10° NNW 14:59:44 15° NNE 15:02:34 10° ENE daylight
26 Jan - 16:37:52 10° NW 16:42:38 66° NE 16:47:24 10° ESE visible
26 Jan - 18:21:24 10° W 18:24:27 17° SW 18:27:29 10° SSW visible
27 Jan - 08:27:50 10° SW 08:32:24 63° SE 08:37:02 10° NE daylight
27 Jan - 10:11:12 10° W 10:14:52 23° NNW 10:18:36 10° NNE daylight
27 Jan - 15:22:11 10° NNW 15:26:17 28° NNE 15:30:23 10° E daylight
27 Jan - 17:04:01 10° WNW 17:08:38 49° SW 17:13:14 10° SSE visible
28 Jan - 07:13:07 10° S 07:16:34 21° SE 07:20:02 10° E daylight
28 Jan - 08:53:57 10° WSW 08:58:28 51° NW 09:03:01 10° NE daylight
28 Jan - 10:39:20 10° NW 10:41:31 13° NNW 10:43:44 10° N daylight
28 Jan - 14:06:58 10° NNW 14:09:36 15° NNE 14:12:15 10° NE daylight
28 Jan - 15:47:50 10° NW 15:52:34 60° NE 15:57:18 10° ESE visible
28 Jan - 17:31:07 10° W 17:34:25 19° SW 17:37:44 10° S visible
29 Jan - 07:37:51 10° SSW 07:42:22 57° SE 07:46:56 10° ENE daylight
29 Jan - 09:21:01 10° W 09:24:47 24° NNW 09:28:36 10° NNE daylight
29 Jan - 14:32:12 10° NNW 14:36:11 26° NNE 14:40:10 10° E daylight
29 Jan - 16:13:55 10° WNW 16:18:35 54° SW 16:23:16 10° SSE visible
30 Jan - 06:23:20 10° S 06:26:33 19° SE 06:29:47 10° E daylight
30 Jan - 08:03:52 10° WSW 08:08:24 56° NW 08:12:59 10° NE daylight
30 Jan - 09:49:01 10° NW 09:51:24 14° NNW 09:53:47 10° N daylight
30 Jan - 13:17:02 10° N 13:19:28 14° NNE 13:21:54 10° NE daylight
30 Jan - 14:57:48 10° NW 15:02:29 54° NE 15:07:11 10° ESE daylight
30 Jan - 16:40:52 10° W 16:44:23 21° SW 16:47:56 10° S visible
31 Jan - 06:47:53 10° SSW 06:52:20 51° SE 06:56:51 10° ENE daylight
31 Jan - 08:30:50 10° W 08:34:42 26° NNW 08:38:36 10° NNE daylight
31 Jan - 13:42:13 10° NNW 13:46:04 24° NNE 13:49:56 10° E daylight
31 Jan - 15:23:50 10° NW 15:28:32 60° SW 15:33:15 10° SE daylight
01 Feb - 05:33:36 10° SSE 05:36:33 17° SE 05:39:30 10° E daylight
01 Feb - 07:13:47 10° WSW 07:18:20 61° NW 07:22:57 10° NE daylight
01 Feb - 08:58:44 10° NW 09:01:16 14° NNW 09:03:50 10° N daylight
01 Feb - 12:27:08 10° N 12:29:20 13° NNE 12:31:33 10° NE daylight
01 Feb - 14:07:47 10° NW 14:12:24 50° NE 14:17:03 10° ESE daylight
01 Feb - 15:50:39 10° WNW 15:54:22 23° SW 15:58:06 10° S visible
02 Feb - 05:57:55 10° SSW 06:02:19 46° SE 06:06:45 10° ENE daylight
02 Feb - 07:40:39 10° W 07:44:36 27° NNW 07:48:36 10° NNE daylight
02 Feb - 12:52:15 10° NNW 12:55:59 22° NNE 12:59:42 10° E daylight
02 Feb - 14:33:45 10° NW 14:38:28 67° SW 14:43:13 10° SE daylight
03 Feb - 04:43:54 10° SSE 04:46:32 15° SE 04:49:10 10° E daylight
03 Feb - 06:23:43 10° WSW 06:28:17 67° NW 06:32:55 10° NE daylight
03 Feb - 08:08:27 10° WNW 08:11:09 15° NNW 08:13:52 10° NNE daylight
03 Feb - 11:37:15 10° N 11:39:12 12° NNE 11:41:09 10° NE daylight
03 Feb - 13:17:47 10° NW 13:22:20 45° NE 13:26:55 10° ESE daylight
03 Feb - 15:00:27 10° WNW 15:04:20 25° SW 15:08:13 10° S daylight
